Home > Time Zones > World Clock > Weather > U.S.A. > Yuma > Past weeks

Flag for U.S.A. Weather past 2 weeks in Yuma, Arizona, U.S.A.

Now
90 °F

Sunny.


Feels Like: 91 °F
Forecast: 89 / 107 °F
Wind: 13 mph from Southeast

Location: Yuma Marine Corps Air Station

Current Time: Jul 26, 2014 at 6:27:31 AM

Latest Report: Jul 26, 2014 at 5:57 AM


Visibility: 10 mi

Pressure: 29.82 "Hg

Humidity: 41%

Dew point: 63 °F

Location of YumaLocation

Historic Weather in Yuma — Graph

°F

Yuma temperature yesterday

Maximum temperature yesterday: 110 °F (at 3:57 PM)
Minimum temperature yesterday: 90 °F (at 5:57 AM)
Average temperature yesterday: 99 °F

Past Weeks' High & Low Weather Summary

 TemperatureHumidityPressure
High117 °F (Jul 23, 2:57 PM)63% (Jul 21, 6:57 AM)29.94 "Hg (Jul 21, 6:57 AM)
Low79 °F (Jul 17, 5:57 AM)4% (Jul 17, 4:57 PM)29.62 "Hg (Jul 24, 4:57 PM)
Average96 °F24%29.80 "Hg
* Reported Jul 11 4:57 AM — Jul 26 4:57 AM, Yuma, Weather by CustomWeather, © 2014

Note: Actual official high and low records may vary slightly from our data, if they occured in-between our weather recording intervals... More about our weather records

Advertising

Yuma weather history for previous 24 hours

 ConditionsComfort  
Time TempWeatherWind HumidityBarometerVisibility
4:57 AM
Jul 26
92 °FClear.12 mph38%29.81 "Hg10 mi
3:57 AM93 °FClear.9 mph36%29.81 "Hg10 mi
2:57 AM93 °FClear.No wind38%29.81 "Hg10 mi
1:57 AM93 °FClear.7 mph38%29.80 "Hg10 mi
12:57 AM92 °FClear.3 mph38%29.80 "Hg10 mi
11:57 PM
Jul 25
95 °FClear.13 mph34%29.80 "Hg10 mi
10:57 PM95 °FClear.14 mph35%29.79 "Hg10 mi
9:57 PM97 °FPartly cloudy.13 mph32%29.78 "Hg10 mi
8:57 PM100 °FPartly cloudy.13 mph26%29.77 "Hg10 mi
7:57 PM102 °FPartly cloudy.15 mph25%29.75 "Hg10 mi
6:57 PM106 °FScattered clouds.10 mph21%29.73 "Hg10 mi
5:57 PM108 °FPassing clouds.13 mph18%29.70 "Hg10 mi
4:57 PM108 °FPassing clouds.15 mph20%29.71 "Hg10 mi
3:57 PM110 °FPassing clouds.14 mph19%29.72 "Hg10 mi
2:57 PM109 °FPassing clouds.13 mph22%29.73 "Hg10 mi
1:57 PM108 °FPassing clouds.15 mph23%29.77 "Hg10 mi
12:57 PM107 °FPassing clouds.20 mph25%29.78 "Hg10 mi
11:57 AM106 °FPassing clouds.24 mph25%29.80 "Hg10 mi
10:57 AM103 °FPassing clouds.23 mph30%29.80 "Hg10 mi
9:57 AM100 °FPassing clouds.20 mph35%29.81 "Hg10 mi
8:57 AM96 °FPassing clouds.18 mph44%29.81 "Hg10 mi
7:57 AM94 °FScattered clouds.23 mph49%29.79 "Hg10 mi
6:57 AM91 °FScattered clouds.17 mph50%29.78 "Hg10 mi
Weather by CustomWeather, © 2014

See weather overviewHow to use our weather pages